Year,Month,Day,Hour,Minute,Value (Times are PST for temperature in C)
2017,05,14,00,00,10.10
2017,05,14,00,01,10.10
2017,05,14,00,02,10.10
2017,05,14,00,03,10.10
2017,05,14,00,04,10.10
2017,05,14,00,05,10.10
2017,05,14,00,06,10.10
2017,05,14,00,07,10.10
2017,05,14,00,08,10.10
2017,05,14,00,09,10.10
2017,05,14,00,10,10.10
2017,05,14,00,11,10.10
2017,05,14,00,12,10.10
2017,05,14,00,13,10.10
2017,05,14,00,14,10.10
2017,05,14,00,15,10.10
2017,05,14,00,16,10.10
2017,05,14,00,17,10.10
2017,05,14,00,18,10.10
2017,05,14,00,19,10.10
2017,05,14,00,20,10.10
2017,05,14,00,21,10.10
2017,05,14,00,22,10.00
2017,05,14,00,23,10.00
2017,05,14,00,24,10.00
2017,05,14,00,25,10.00
2017,05,14,00,26,10.00
2017,05,14,00,27,10.00
2017,05,14,00,28,10.00
2017,05,14,00,29,10.00
2017,05,14,00,30,10.00
2017,05,14,00,31,10.00
2017,05,14,00,32,10.00
2017,05,14,00,33,10.00
2017,05,14,00,34,10.00
2017,05,14,00,35,9.90
2017,05,14,00,36,9.90
2017,05,14,00,37,9.90
2017,05,14,00,38,9.90
2017,05,14,00,39,9.90
2017,05,14,00,40,9.90
2017,05,14,00,41,9.90
2017,05,14,00,42,9.90
2017,05,14,00,43,9.90
2017,05,14,00,44,9.90
2017,05,14,00,45,9.90
2017,05,14,00,46,9.90
2017,05,14,00,47,9.90
2017,05,14,00,48,9.80
2017,05,14,00,49,9.80
2017,05,14,00,50,9.80
2017,05,14,00,51,9.80
2017,05,14,00,52,9.80
2017,05,14,00,53,9.80
2017,05,14,00,54,9.80
2017,05,14,00,55,9.80
2017,05,14,00,56,9.80
2017,05,14,00,57,9.80
2017,05,14,00,58,9.80
2017,05,14,00,59,9.80
2017,05,14,01,00,9.80
2017,05,14,01,01,9.80
2017,05,14,01,02,9.80
2017,05,14,01,03,9.80
2017,05,14,01,04,9.80
2017,05,14,01,05,9.80
2017,05,14,01,06,9.80
2017,05,14,01,07,9.80
2017,05,14,01,08,9.80
2017,05,14,01,09,9.70
2017,05,14,01,10,9.70
2017,05,14,01,11,9.70
2017,05,14,01,12,9.70
2017,05,14,01,13,9.70
2017,05,14,01,14,9.70
2017,05,14,01,15,9.70
2017,05,14,01,16,9.70
2017,05,14,01,17,9.70
2017,05,14,01,18,9.70
2017,05,14,01,19,9.70
2017,05,14,01,20,9.60
2017,05,14,01,21,9.60
2017,05,14,01,22,9.60
2017,05,14,01,23,9.60
2017,05,14,01,24,9.60
2017,05,14,01,25,9.60
2017,05,14,01,26,9.60
2017,05,14,01,27,9.60
2017,05,14,01,28,9.50
2017,05,14,01,29,9.50
2017,05,14,01,30,9.50
2017,05,14,01,31,9.50
2017,05,14,01,32,9.50
2017,05,14,01,33,9.40
2017,05,14,01,34,9.40
2017,05,14,01,35,9.40
2017,05,14,01,36,9.40
2017,05,14,01,37,9.30
2017,05,14,01,38,9.30
2017,05,14,01,39,9.30
2017,05,14,01,40,9.30
2017,05,14,01,41,9.30
2017,05,14,01,42,9.20
2017,05,14,01,43,9.20
2017,05,14,01,44,9.20
2017,05,14,01,45,9.20
2017,05,14,01,46,9.10
2017,05,14,01,47,9.10
2017,05,14,01,48,9.10
2017,05,14,01,49,9.10
2017,05,14,01,50,9.00
2017,05,14,01,51,9.00
2017,05,14,01,52,9.00
2017,05,14,01,53,9.00
2017,05,14,01,54,8.90
2017,05,14,01,55,8.90
2017,05,14,01,56,8.90
2017,05,14,01,57,8.90
2017,05,14,01,58,8.90
2017,05,14,01,59,8.90
2017,05,14,02,00,8.80
2017,05,14,02,01,8.80
2017,05,14,02,02,8.80
2017,05,14,02,03,8.80
2017,05,14,02,04,8.70
2017,05,14,02,05,8.70
2017,05,14,02,06,8.70
2017,05,14,02,07,8.70
2017,05,14,02,08,8.70
2017,05,14,02,09,8.70
2017,05,14,02,10,8.70
2017,05,14,02,11,8.80
2017,05,14,02,12,8.80
2017,05,14,02,13,8.80
2017,05,14,02,14,8.80
2017,05,14,02,15,8.80
2017,05,14,02,16,8.80
2017,05,14,02,17,8.80
2017,05,14,02,18,8.80
2017,05,14,02,19,8.80
2017,05,14,02,20,8.70
2017,05,14,02,21,8.70
2017,05,14,02,22,8.70
2017,05,14,02,23,8.70
2017,05,14,02,24,8.70
2017,05,14,02,25,8.60
2017,05,14,02,26,8.60
2017,05,14,02,27,8.60
2017,05,14,02,28,8.60
2017,05,14,02,29,8.50
2017,05,14,02,30,8.50
2017,05,14,02,31,8.50
2017,05,14,02,32,8.40
2017,05,14,02,33,8.40
2017,05,14,02,34,8.40
2017,05,14,02,35,8.40
2017,05,14,02,36,8.30
2017,05,14,02,37,8.30
2017,05,14,02,38,8.30
2017,05,14,02,39,8.30
2017,05,14,02,40,8.30
2017,05,14,02,41,8.30
2017,05,14,02,42,8.30
2017,05,14,02,43,8.30
2017,05,14,02,44,8.30
2017,05,14,02,45,8.30
2017,05,14,02,46,8.30
2017,05,14,02,47,8.30
2017,05,14,02,48,8.20
2017,05,14,02,49,8.20
2017,05,14,02,50,8.20
2017,05,14,02,51,8.20
2017,05,14,02,52,8.20
2017,05,14,02,53,8.20
2017,05,14,02,54,8.20
2017,05,14,02,55,8.20
2017,05,14,02,56,8.20
2017,05,14,02,57,8.20
2017,05,14,02,58,8.20
2017,05,14,02,59,8.20
2017,05,14,03,00,8.20
2017,05,14,03,01,8.20
2017,05,14,03,02,8.20
2017,05,14,03,03,8.10
2017,05,14,03,04,8.10
2017,05,14,03,05,8.10
2017,05,14,03,06,8.10
2017,05,14,03,07,8.20
2017,05,14,03,08,8.10
2017,05,14,03,09,8.10
2017,05,14,03,10,8.20
2017,05,14,03,11,8.20
2017,05,14,03,12,8.10
2017,05,14,03,13,8.20
2017,05,14,03,14,8.20
2017,05,14,03,15,8.20
2017,05,14,03,16,8.20
2017,05,14,03,17,8.20
2017,05,14,03,18,8.20
2017,05,14,03,19,8.20
2017,05,14,03,20,8.20
2017,05,14,03,21,8.20
2017,05,14,03,22,8.20
2017,05,14,03,23,8.20
2017,05,14,03,24,8.20
2017,05,14,03,25,8.20
2017,05,14,03,26,8.20
2017,05,14,03,27,8.20
2017,05,14,03,28,8.20
2017,05,14,03,29,8.20
2017,05,14,03,30,8.20
2017,05,14,03,31,8.20
2017,05,14,03,32,8.30
2017,05,14,03,33,8.30
2017,05,14,03,34,8.30
2017,05,14,03,35,8.30
2017,05,14,03,36,8.30
2017,05,14,03,37,8.30
2017,05,14,03,38,8.30
2017,05,14,03,39,8.30
2017,05,14,03,40,8.30
2017,05,14,03,41,8.30
2017,05,14,03,42,8.30
2017,05,14,03,43,8.30
2017,05,14,03,44,8.30
2017,05,14,03,45,8.30
2017,05,14,03,46,8.30
2017,05,14,03,47,8.30
2017,05,14,03,48,8.30
2017,05,14,03,49,8.30
2017,05,14,03,50,8.30
2017,05,14,03,51,8.30
2017,05,14,03,52,8.30
2017,05,14,03,53,8.30
2017,05,14,03,54,8.30
2017,05,14,03,55,8.30
2017,05,14,03,56,8.30
2017,05,14,03,57,8.30
2017,05,14,03,58,8.40
2017,05,14,03,59,8.40
2017,05,14,04,00,8.40
2017,05,14,04,01,8.40
2017,05,14,04,02,8.40
2017,05,14,04,03,8.40
2017,05,14,04,04,8.40
2017,05,14,04,05,8.40
2017,05,14,04,06,8.40
2017,05,14,04,07,8.40
2017,05,14,04,08,8.40
2017,05,14,04,09,8.50
2017,05,14,04,10,8.50
2017,05,14,04,11,8.50
2017,05,14,04,12,8.50
2017,05,14,04,13,8.50
2017,05,14,04,14,8.60
2017,05,14,04,15,8.60
2017,05,14,04,16,8.60
2017,05,14,04,17,8.60
2017,05,14,04,18,8.60
2017,05,14,04,19,8.60
2017,05,14,04,20,8.60
2017,05,14,04,21,8.60
2017,05,14,04,22,8.60
2017,05,14,04,23,8.60
2017,05,14,04,24,8.60
2017,05,14,04,25,8.60
2017,05,14,04,26,8.60
2017,05,14,04,27,8.70
2017,05,14,04,28,8.70
2017,05,14,04,29,8.70
2017,05,14,04,30,8.70
2017,05,14,04,31,8.70
2017,05,14,04,32,8.70
2017,05,14,04,33,8.70
2017,05,14,04,34,8.70
2017,05,14,04,35,8.70
2017,05,14,04,36,8.80
2017,05,14,04,37,8.80
2017,05,14,04,38,8.80
2017,05,14,04,39,8.80
2017,05,14,04,40,8.80
2017,05,14,04,41,8.80
2017,05,14,04,42,8.80
2017,05,14,04,43,8.80
2017,05,14,04,44,8.80
2017,05,14,04,45,8.80
2017,05,14,04,46,8.80
2017,05,14,04,47,8.90
2017,05,14,04,48,8.90
2017,05,14,04,49,8.90
2017,05,14,04,50,8.90
2017,05,14,04,51,8.90
2017,05,14,04,52,9.00
2017,05,14,04,53,9.00
2017,05,14,04,54,9.00
2017,05,14,04,55,9.00
2017,05,14,04,56,9.00
2017,05,14,04,57,9.10
2017,05,14,04,58,9.10
2017,05,14,04,59,9.10
2017,05,14,05,00,9.10
2017,05,14,05,01,9.10
2017,05,14,05,02,9.10
2017,05,14,05,03,9.10
2017,05,14,05,04,9.10
2017,05,14,05,05,9.10
2017,05,14,05,06,9.10
2017,05,14,05,07,9.10
2017,05,14,05,08,9.20
2017,05,14,05,09,9.20
2017,05,14,05,10,9.20
2017,05,14,05,11,9.20
2017,05,14,05,12,9.20
2017,05,14,05,13,9.20
2017,05,14,05,14,9.20
2017,05,14,05,15,9.20
2017,05,14,05,16,9.20
2017,05,14,05,17,9.20
2017,05,14,05,18,9.20
2017,05,14,05,19,9.20
2017,05,14,05,20,9.20
2017,05,14,05,21,9.20
2017,05,14,05,22,9.20
2017,05,14,05,23,9.20
2017,05,14,05,24,9.20
2017,05,14,05,25,9.30
2017,05,14,05,26,9.30
2017,05,14,05,27,9.30
2017,05,14,05,28,9.30
2017,05,14,05,29,9.30
2017,05,14,05,30,9.30
2017,05,14,05,31,9.30
2017,05,14,05,32,9.30
2017,05,14,05,33,9.30
2017,05,14,05,34,9.30
2017,05,14,05,35,9.30
2017,05,14,05,36,9.30
2017,05,14,05,37,9.30
2017,05,14,05,38,9.30
2017,05,14,05,39,9.30
2017,05,14,05,40,9.30
2017,05,14,05,41,9.30
2017,05,14,05,42,9.30
2017,05,14,05,43,9.30
2017,05,14,05,44,9.30
2017,05,14,05,45,9.30
2017,05,14,05,46,9.30
2017,05,14,05,47,9.40
2017,05,14,05,48,9.40
2017,05,14,05,49,9.40
2017,05,14,05,50,9.40
2017,05,14,05,51,9.40
2017,05,14,05,52,9.40
2017,05,14,05,53,9.40
2017,05,14,05,54,9.40
2017,05,14,05,55,9.40
2017,05,14,05,56,9.40
2017,05,14,05,57,9.40
2017,05,14,05,58,9.40
2017,05,14,05,59,9.40
2017,05,14,06,00,9.40
2017,05,14,06,01,9.40
2017,05,14,06,02,9.40
2017,05,14,06,03,9.40
2017,05,14,06,04,9.40
2017,05,14,06,05,9.40
2017,05,14,06,06,9.40
2017,05,14,06,07,9.40
2017,05,14,06,08,9.40
2017,05,14,06,09,9.40
2017,05,14,06,10,9.40
2017,05,14,06,11,9.40
2017,05,14,06,12,9.40
2017,05,14,06,13,9.40
2017,05,14,06,14,9.40
2017,05,14,06,15,9.40
2017,05,14,06,16,9.40
2017,05,14,06,17,9.30
2017,05,14,06,18,9.30
2017,05,14,06,19,9.30
2017,05,14,06,20,9.30
2017,05,14,06,21,9.30
2017,05,14,06,22,9.30
2017,05,14,06,23,9.30
2017,05,14,06,24,9.30
2017,05,14,06,25,9.20
2017,05,14,06,26,9.20
2017,05,14,06,27,9.20
2017,05,14,06,28,9.20
2017,05,14,06,29,9.20
2017,05,14,06,30,9.20
2017,05,14,06,31,9.20
2017,05,14,06,32,9.20
2017,05,14,06,33,9.20
2017,05,14,06,34,9.20
2017,05,14,06,35,9.20
2017,05,14,06,36,9.20
2017,05,14,06,37,9.20
2017,05,14,06,38,9.20
2017,05,14,06,39,9.20
2017,05,14,06,40,9.20
2017,05,14,06,41,9.20
2017,05,14,06,42,9.20
2017,05,14,06,43,9.20
2017,05,14,06,44,9.20
2017,05,14,06,45,9.20
2017,05,14,06,46,9.20
2017,05,14,06,47,9.20
2017,05,14,06,48,9.20
2017,05,14,06,49,9.20
2017,05,14,06,50,9.20
2017,05,14,06,51,9.20
2017,05,14,06,52,9.20
2017,05,14,06,53,9.20
2017,05,14,06,54,9.20
2017,05,14,06,55,9.20
2017,05,14,06,56,9.20
2017,05,14,06,57,9.20
2017,05,14,06,58,9.20
2017,05,14,06,59,9.20
2017,05,14,07,00,9.20
2017,05,14,07,01,9.20
2017,05,14,07,02,9.10
2017,05,14,07,03,9.10
2017,05,14,07,04,9.10
2017,05,14,07,05,9.10
2017,05,14,07,06,9.10
2017,05,14,07,07,9.10
2017,05,14,07,08,9.10
2017,05,14,07,09,9.10
2017,05,14,07,10,9.10
2017,05,14,07,11,9.10
2017,05,14,07,12,9.10
2017,05,14,07,13,9.10
2017,05,14,07,14,9.10
2017,05,14,07,15,9.10
2017,05,14,07,16,9.10
2017,05,14,07,17,9.10
2017,05,14,07,18,9.10
2017,05,14,07,19,9.10
2017,05,14,07,20,9.10
2017,05,14,07,21,9.10
2017,05,14,07,22,9.10
2017,05,14,07,23,9.10
2017,05,14,07,24,9.20
2017,05,14,07,25,9.20
2017,05,14,07,26,9.20
2017,05,14,07,27,9.20
2017,05,14,07,28,9.20
2017,05,14,07,29,9.20
2017,05,14,07,30,9.20
2017,05,14,07,31,9.20
2017,05,14,07,32,9.20
2017,05,14,07,33,9.20
2017,05,14,07,34,9.20
2017,05,14,07,35,9.20
2017,05,14,07,36,9.30
2017,05,14,07,37,9.30
2017,05,14,07,38,9.30
2017,05,14,07,39,9.30
2017,05,14,07,40,9.30
2017,05,14,07,41,9.30
2017,05,14,07,42,9.30
2017,05,14,07,43,9.30
2017,05,14,07,44,9.30
2017,05,14,07,45,9.30
2017,05,14,07,46,9.30
2017,05,14,07,47,9.30
2017,05,14,07,48,9.30
2017,05,14,07,49,9.30
2017,05,14,07,50,9.30
2017,05,14,07,51,9.40
2017,05,14,07,52,9.40
2017,05,14,07,53,9.40
2017,05,14,07,54,9.40
2017,05,14,07,55,9.40
2017,05,14,07,56,9.40
2017,05,14,07,57,9.40
2017,05,14,07,58,9.40
2017,05,14,07,59,9.40
2017,05,14,08,00,9.40
2017,05,14,08,01,9.40
2017,05,14,08,02,9.40
2017,05,14,08,03,9.30
2017,05,14,08,04,9.30
2017,05,14,08,05,9.30
2017,05,14,08,06,9.30
2017,05,14,08,07,9.30
2017,05,14,08,08,9.30
2017,05,14,08,09,9.30
2017,05,14,08,10,9.30
2017,05,14,08,11,9.30
2017,05,14,08,12,9.30
2017,05,14,08,13,9.30
2017,05,14,08,14,9.30
2017,05,14,08,15,9.30
2017,05,14,08,16,9.40
2017,05,14,08,17,9.40
2017,05,14,08,18,9.40
2017,05,14,08,19,9.40
2017,05,14,08,20,9.40
2017,05,14,08,21,9.40
2017,05,14,08,22,9.40
2017,05,14,08,23,9.30
2017,05,14,08,24,9.30
2017,05,14,08,25,9.30
2017,05,14,08,26,9.30
2017,05,14,08,27,9.40
2017,05,14,08,28,9.40
2017,05,14,08,29,9.40
2017,05,14,08,30,9.40
2017,05,14,08,31,9.30
2017,05,14,08,32,9.30
2017,05,14,08,33,9.30
2017,05,14,08,34,9.30
2017,05,14,08,35,9.30
2017,05,14,08,36,9.40
2017,05,14,08,37,9.40
2017,05,14,08,38,9.40
2017,05,14,08,39,9.40
2017,05,14,08,40,9.50
2017,05,14,08,41,9.50
2017,05,14,08,42,9.50
2017,05,14,08,43,9.50
2017,05,14,08,44,9.50
2017,05,14,08,45,9.50
2017,05,14,08,46,9.50
2017,05,14,08,47,9.50
2017,05,14,08,48,9.50
2017,05,14,08,49,9.50
2017,05,14,08,50,9.50
2017,05,14,08,51,9.50
2017,05,14,08,52,9.50
2017,05,14,08,53,9.60
2017,05,14,08,54,9.60
2017,05,14,08,55,9.60
2017,05,14,08,56,9.60
2017,05,14,08,57,9.60
2017,05,14,08,58,9.60
2017,05,14,08,59,9.60
2017,05,14,09,00,9.60
2017,05,14,09,01,9.60
2017,05,14,09,02,9.60
2017,05,14,09,03,9.60
2017,05,14,09,04,9.60
2017,05,14,09,05,9.60
2017,05,14,09,06,9.60
2017,05,14,09,07,9.60
2017,05,14,09,08,9.70
2017,05,14,09,09,9.70
2017,05,14,09,10,9.80
2017,05,14,09,11,9.80
2017,05,14,09,12,9.90
2017,05,14,09,13,9.90
2017,05,14,09,14,9.90
2017,05,14,09,15,9.90
2017,05,14,09,16,9.90
2017,05,14,09,17,9.90
2017,05,14,09,18,9.90
2017,05,14,09,19,9.90
2017,05,14,09,20,9.90
2017,05,14,09,21,9.90
2017,05,14,09,22,9.90
2017,05,14,09,23,9.90
2017,05,14,09,24,9.90
2017,05,14,09,25,9.90
2017,05,14,09,26,9.90
2017,05,14,09,27,9.90
2017,05,14,09,28,9.90
2017,05,14,09,29,9.90
2017,05,14,09,30,10.00
2017,05,14,09,31,10.00
2017,05,14,09,32,10.00
2017,05,14,09,33,10.10
2017,05,14,09,34,10.10
2017,05,14,09,35,10.10
2017,05,14,09,36,10.10
2017,05,14,09,37,10.10
2017,05,14,09,38,10.10
2017,05,14,09,39,10.10
2017,05,14,09,40,10.10
2017,05,14,09,41,10.10
2017,05,14,09,42,10.10
2017,05,14,09,43,10.10
2017,05,14,09,44,10.10
2017,05,14,09,45,10.10
2017,05,14,09,46,10.10
2017,05,14,09,47,10.10
2017,05,14,13,27,12.60
2017,05,14,13,28,12.60
2017,05,14,13,29,12.60
2017,05,14,13,30,12.60
2017,05,14,13,31,12.60
2017,05,14,13,32,12.60
2017,05,14,13,33,12.60
2017,05,14,13,34,12.60
2017,05,14,13,35,12.60
2017,05,14,13,36,12.60
2017,05,14,13,37,12.70
2017,05,14,13,38,12.70
2017,05,14,13,39,12.70
2017,05,14,13,40,12.80
2017,05,14,13,41,12.80
2017,05,14,13,42,12.80
2017,05,14,13,43,12.80
2017,05,14,13,44,12.80
2017,05,14,13,45,12.80
2017,05,14,13,46,12.90
2017,05,14,13,47,12.90
2017,05,14,13,48,13.00
2017,05,14,13,49,13.00
2017,05,14,13,50,13.10
2017,05,14,13,51,13.00
2017,05,14,13,52,12.90
2017,05,14,13,53,12.90
2017,05,14,13,54,12.80
2017,05,14,13,55,12.80
2017,05,14,13,56,12.80
2017,05,14,13,57,12.80
2017,05,14,13,58,12.80
2017,05,14,13,59,12.80
2017,05,14,14,00,12.80
2017,05,14,14,01,12.80
2017,05,14,14,02,12.80
2017,05,14,14,03,12.80
2017,05,14,14,04,12.90
2017,05,14,14,05,12.90
2017,05,14,14,06,12.90
2017,05,14,14,07,12.90
2017,05,14,14,08,12.90
2017,05,14,14,09,12.90
2017,05,14,14,10,13.00
2017,05,14,14,11,13.00
2017,05,14,14,12,12.90
2017,05,14,14,13,12.90
2017,05,14,14,14,12.90
2017,05,14,14,15,12.80
2017,05,14,14,16,12.80
2017,05,14,14,17,12.80
2017,05,14,14,18,12.90
2017,05,14,14,19,12.90
2017,05,14,14,20,12.90
2017,05,14,14,21,13.00
2017,05,14,14,22,13.10
2017,05,14,14,23,13.00
2017,05,14,14,24,12.90
2017,05,14,14,25,12.80
2017,05,14,14,26,12.70
2017,05,14,14,27,12.70
2017,05,14,14,28,12.70
2017,05,14,14,29,12.70
2017,05,14,14,30,12.70
2017,05,14,14,31,12.70
2017,05,14,14,32,12.70
2017,05,14,14,33,12.70
2017,05,14,14,34,12.70
2017,05,14,14,35,12.70
2017,05,14,14,36,12.80
2017,05,14,14,37,12.80
2017,05,14,14,38,12.80
2017,05,14,14,39,12.80
2017,05,14,14,40,12.80
2017,05,14,14,41,12.80
2017,05,14,14,42,12.80
2017,05,14,14,43,12.80
2017,05,14,14,44,12.70
2017,05,14,14,45,12.70
2017,05,14,14,46,12.80
2017,05,14,14,47,12.80
2017,05,14,14,48,12.80
2017,05,14,14,49,12.80
2017,05,14,14,50,12.80
2017,05,14,14,51,12.80
2017,05,14,14,52,12.90
2017,05,14,14,53,13.00
2017,05,14,14,54,13.00
2017,05,14,14,55,13.00
2017,05,14,14,56,13.00
2017,05,14,14,57,13.00
2017,05,14,14,58,12.90
2017,05,14,14,59,12.90
2017,05,14,15,00,12.90
2017,05,14,15,01,12.90
2017,05,14,15,02,12.90
2017,05,14,15,03,13.00
2017,05,14,15,04,13.00
2017,05,14,15,05,13.00
2017,05,14,15,06,13.10
2017,05,14,15,07,13.10
2017,05,14,15,08,13.20
2017,05,14,15,09,13.30
2017,05,14,15,10,13.30
2017,05,14,15,11,13.40
2017,05,14,15,12,13.40
2017,05,14,15,13,13.40
2017,05,14,15,14,13.40
2017,05,14,15,15,13.30
2017,05,14,15,16,13.30
2017,05,14,15,17,13.30
2017,05,14,15,18,13.30
2017,05,14,15,19,13.20
2017,05,14,15,20,13.20
2017,05,14,15,21,13.10
2017,05,14,15,22,13.00
2017,05,14,15,23,13.00
2017,05,14,15,24,12.90
2017,05,14,15,25,12.90
2017,05,14,15,26,12.80
2017,05,14,15,27,12.80
2017,05,14,15,28,12.70
2017,05,14,15,29,12.70
2017,05,14,15,30,12.60
2017,05,14,15,31,12.60
2017,05,14,15,32,12.60
2017,05,14,15,33,12.60
2017,05,14,15,34,12.60
2017,05,14,15,35,12.60
2017,05,14,15,36,12.50
2017,05,14,15,37,12.50
2017,05,14,15,38,12.50
2017,05,14,15,39,12.50
2017,05,14,15,40,12.60
2017,05,14,15,41,12.60
2017,05,14,15,42,12.60
2017,05,14,15,43,12.60
2017,05,14,15,44,12.60
2017,05,14,15,45,12.60
2017,05,14,15,46,12.70
2017,05,14,15,47,12.70
2017,05,14,15,48,12.70
2017,05,14,15,49,12.80
2017,05,14,15,50,12.80
2017,05,14,15,51,12.90
2017,05,14,15,52,12.90
2017,05,14,15,53,12.90
2017,05,14,15,54,13.00
2017,05,14,15,55,13.10
2017,05,14,15,56,13.10
2017,05,14,15,57,13.20
2017,05,14,15,58,13.20
2017,05,14,15,59,13.30
2017,05,14,16,00,13.30
2017,05,14,16,01,13.30
2017,05,14,16,02,13.40
2017,05,14,16,03,13.40
2017,05,14,16,04,13.40
2017,05,14,16,05,13.50
2017,05,14,16,06,13.60
2017,05,14,16,07,13.60
2017,05,14,16,08,13.70
2017,05,14,16,09,13.80
2017,05,14,16,10,13.90
2017,05,14,16,11,14.00
2017,05,14,16,12,14.10
2017,05,14,16,13,14.10
2017,05,14,16,14,14.20
2017,05,14,16,15,14.30
2017,05,14,16,16,14.30
2017,05,14,16,17,14.40
2017,05,14,16,18,14.40
2017,05,14,16,19,14.50
2017,05,14,16,20,14.60
2017,05,14,16,21,14.70
2017,05,14,16,22,14.70
2017,05,14,16,23,14.70
2017,05,14,16,24,14.70
2017,05,14,16,25,14.70
2017,05,14,16,26,14.70
2017,05,14,16,27,14.70
2017,05,14,16,28,14.70
2017,05,14,16,29,14.70
2017,05,14,16,30,14.60
2017,05,14,16,31,14.50
2017,05,14,16,32,14.40
2017,05,14,16,33,14.30
2017,05,14,16,34,14.20
2017,05,14,16,35,14.20
2017,05,14,16,36,14.20
2017,05,14,16,37,14.10
2017,05,14,16,38,14.10
2017,05,14,16,39,14.10
2017,05,14,16,40,14.00
2017,05,14,16,41,14.00
2017,05,14,16,42,13.80
2017,05,14,16,43,13.70
2017,05,14,16,44,13.60
2017,05,14,16,45,13.60
2017,05,14,16,46,13.60
2017,05,14,16,47,13.70
2017,05,14,16,48,13.70
2017,05,14,16,49,13.60
2017,05,14,16,50,13.60
2017,05,14,16,51,13.60
2017,05,14,16,52,13.50
2017,05,14,16,53,13.50
2017,05,14,16,54,13.50
2017,05,14,16,55,13.50
2017,05,14,16,56,13.50
2017,05,14,16,57,13.40
2017,05,14,16,58,13.40
2017,05,14,16,59,13.30
2017,05,14,17,00,13.30
2017,05,14,17,01,13.20
2017,05,14,17,02,13.20
2017,05,14,17,03,13.30
2017,05,14,17,04,13.40
2017,05,14,17,05,13.50
2017,05,14,17,06,13.60
2017,05,14,17,07,13.60
2017,05,14,17,08,13.60
2017,05,14,17,09,13.60
2017,05,14,17,10,13.60
2017,05,14,17,11,13.70
2017,05,14,17,12,13.70
2017,05,14,17,13,13.70
2017,05,14,17,14,13.80
2017,05,14,17,15,13.80
2017,05,14,17,16,13.80
2017,05,14,17,17,13.90
2017,05,14,17,18,13.90
2017,05,14,17,19,14.00
2017,05,14,17,20,14.10
2017,05,14,17,21,14.10
2017,05,14,17,22,14.20
2017,05,14,17,23,14.20
2017,05,14,17,24,14.20
2017,05,14,17,25,14.20
2017,05,14,17,26,14.20
2017,05,14,17,27,14.20
2017,05,14,17,28,14.20
2017,05,14,17,29,14.20
2017,05,14,17,30,14.20
2017,05,14,17,31,14.20
2017,05,14,17,32,14.20
2017,05,14,17,33,14.20
2017,05,14,17,34,14.20
2017,05,14,17,35,14.20
2017,05,14,17,36,14.20
2017,05,14,17,37,14.20
2017,05,14,17,38,14.20
2017,05,14,17,39,14.30
2017,05,14,17,40,14.30
2017,05,14,17,41,14.40
2017,05,14,17,42,14.40
2017,05,14,17,43,14.50
2017,05,14,17,44,14.50
2017,05,14,17,45,14.50
2017,05,14,17,46,14.60
2017,05,14,17,47,14.60
2017,05,14,17,48,14.60
2017,05,14,17,49,14.70
2017,05,14,17,50,14.70
2017,05,14,17,51,14.70
2017,05,14,17,52,14.70
2017,05,14,17,53,14.60
2017,05,14,17,54,14.70
2017,05,14,17,55,14.70
2017,05,14,17,56,14.80
2017,05,14,17,57,14.70
2017,05,14,17,58,14.60
2017,05,14,17,59,14.50
2017,05,14,18,00,14.40
2017,05,14,18,01,14.30
2017,05,14,18,02,14.30
2017,05,14,18,03,14.30
2017,05,14,18,04,14.20
2017,05,14,18,05,14.00
2017,05,14,18,06,14.00
2017,05,14,18,07,13.90
2017,05,14,18,08,13.90
2017,05,14,18,09,13.90
2017,05,14,18,10,13.80
2017,05,14,18,11,13.80
2017,05,14,18,12,13.90
2017,05,14,18,13,13.90
2017,05,14,18,14,13.90
2017,05,14,18,15,14.00
2017,05,14,18,16,14.00
2017,05,14,18,17,14.00
2017,05,14,18,18,14.10
2017,05,14,18,19,14.10
2017,05,14,18,20,14.10
2017,05,14,18,21,14.20
2017,05,14,18,22,14.20
2017,05,14,18,23,14.20
2017,05,14,18,24,14.20
2017,05,14,18,25,14.30
2017,05,14,18,26,14.30
2017,05,14,18,27,14.20
2017,05,14,18,28,14.20
2017,05,14,18,29,14.10
2017,05,14,18,30,14.00
2017,05,14,18,31,13.90
2017,05,14,18,32,13.80
2017,05,14,18,33,13.80
2017,05,14,18,34,13.70
2017,05,14,18,35,13.60
2017,05,14,18,36,13.60
2017,05,14,18,37,13.50
2017,05,14,18,38,13.40
2017,05,14,18,39,13.30
2017,05,14,18,40,13.30
2017,05,14,18,41,13.30
2017,05,14,18,42,13.30
2017,05,14,18,43,13.30
2017,05,14,18,44,13.30
2017,05,14,18,45,13.30
2017,05,14,18,46,13.30
2017,05,14,18,47,13.30
2017,05,14,18,48,13.30
